| time (UTC) | temp C | wind direction | speed KPH | gust KPH | rain 1hr cm | rain 24hr cm | rain mn cm | humidity % | barometer mb |
| 20260505234008 | 16 | 266 | 3.2 | 6.4 | 0.00 | 0.00 | 0.00 | 73 | 1014.2 |
| 20260505233510 | 16 | 261 | 3.2 | 6.4 | 0.00 | 0.00 | 0.00 | 73 | 1014.3 |
| 20260505233013 | 16 | 281 | 1.6 | 4.8 | 0.00 | 0.00 | 0.00 | 71 | 1014.3 |
| 20260505233008 | 16 | 261 | 3.2 | 6.4 | 0.00 | 0.00 | 0.00 | 72 | 1014.3 |
| 20260505232009 | 16 | 281 | 1.6 | 6.4 | 0.00 | 0.00 | 0.00 | 72 | 1014.4 |
| 20260505231508 | 16 | 281 | 3.2 | 6.4 | 0.00 | 0.00 | 0.00 | 72 | 1014.4 |
| 20260505231006 | 16 | 281 | 3.2 | 6.4 | 0.00 | 0.00 | 0.00 | 72 | 1014.3 |
| 20260505230506 | 16 | 281 | 3.2 | 6.4 | 0.00 | 0.00 | 0.00 | 71 | 1014.4 |
| 20260505230006 | 16 | 348 | 3.2 | 8.0 | 0.00 | 0.00 | 0.00 | 71 | 1014.3 |
| 20260505225508 | 16 | 75 | 1.6 | 8.0 | 0.00 | 0.00 | 0.00 | 71 | 1014.4 |
| 20260505225007 | 16 | 152 | 1.6 | 6.4 | 0.00 | 0.00 | 0.00 | 72 | 1014.4 |
| 20260505224506 | 16 | 28 | 1.6 | 4.8 | 0.00 | 0.00 | 0.00 | 73 | 1014.4 |
| 20260505224007 | 16 | 28 | 1.6 | 4.8 | 0.00 | 0.00 | 0.00 | 72 | 1014.4 |
| 20260505223507 | 16 | 28 | 1.6 | 4.8 | 0.00 | 0.00 | 0.00 | 71 | 1014.5 |
| 20260505223005 | 16 | 28 | 3.2 | 6.4 | 0.00 | 0.00 | 0.00 | 72 | 1014.6 |
| 20260505222506 | 16 | 28 | 3.2 | 6.4 | 0.00 | 0.00 | 0.00 | 72 | 1014.5 |
| 20260505222005 | 16 | 327 | 3.2 | 8.0 | 0.00 | 0.00 | 0.00 | 72 | 1014.6 |
| 20260505221504 | 16 | 16 | 4.8 | 8.0 | 0.00 | 0.00 | 0.00 | 72 | 1014.6 |
| 20260505221006 | 16 | 13 | 4.8 | 11.3 | 0.00 | 0.00 | 0.00 | 72 | 1014.7 |
| 20260505220511 | 16 | 55 | 3.2 | 8.0 | 0.00 | 0.00 | 0.00 | 73 | 1014.6 |
| 20260505220506 | 16 | 18 | 4.8 | 11.3 | 0.00 | 0.00 | 0.00 | 72 | 1014.7 |
| 20260505215509 | 16 | 25 | 4.8 | 9.7 | 0.00 | 0.00 | 0.00 | 72 | 1014.7 |
| 20260505215504 | 16 | 348 | 4.8 | 9.7 | 0.00 | 0.00 | 0.00 | 72 | 1014.7 |
| 20260505214505 | 16 | 5 | 4.8 | 11.3 | 0.00 | 0.00 | 0.00 | 72 | 1014.7 |
| 20260505214009 | 16 | 34 | 6.4 | 14.5 | 0.00 | 0.00 | 0.00 | 72 | 1014.9 |
| 20260505214005 | 16 | 334 | 6.4 | 11.3 | 0.00 | 0.00 | 0.00 | 73 | 1014.8 |
| 20260505213003 | 16 | 28 | 4.8 | 14.5 | 0.00 | 0.00 | 0.00 | 72 | 1014.9 |
| 20260505212502 | 16 | 15 | 4.8 | 12.9 | 0.00 | 0.00 | 0.00 | 73 | 1014.9 |
| 20260505212003 | 16 | 28 | 4.8 | 12.9 | 0.00 | 0.00 | 0.00 | 72 | 1015.0 |
| 20260505211503 | 16 | 350 | 6.4 | 11.3 | 0.00 | 0.00 | 0.00 | 72 | 1014.9 |
| 20260505211003 | 16 | 49 | 4.8 | 11.3 | 0.00 | 0.00 | 0.00 | 72 | 1014.8 |
| 20260505210503 | 16 | 333 | 3.2 | 11.3 | 0.00 | 0.00 | 0.00 | 72 | 1014.8 |
| 20260505210007 | 16 | 284 | 1.6 | 6.4 | 0.00 | 0.00 | 0.00 | 74 | 1014.7 |
| 20260505210001 | 16 | 295 | 3.2 | 11.3 | 0.00 | 0.00 | 0.00 | 72 | 1014.8 |
| 20260505205008 | 16 | 333 | 1.6 | 6.4 | 0.00 | 0.00 | 0.00 | 72 | 1014.8 |
| 20260505205002 | 16 | 333 | 1.6 | 4.8 | 0.00 | 0.00 | 0.00 | 72 | 1014.8 |
| 20260505204000 | 15 | 333 | 4.8 | 12.9 | 0.00 | 0.00 | 0.00 | 73 | 1014.8 |
| 20260505203500 | 16 | 333 | 4.8 | 12.9 | 0.00 | 0.00 | 0.00 | 74 | 1014.8 |
| 20260505202959 | 15 | 298 | 3.2 | 6.4 | 0.00 | 0.00 | 0.00 | 75 | 1014.9 |
| 20260505202501 | 15 | 275 | 4.8 | 11.3 | 0.00 | 0.00 | 0.00 | 74 | 1014.8 |
| 20260505201959 | 15 | 313 | 3.2 | 11.3 | 0.00 | 0.00 | 0.00 | 76 | 1014.8 |
| 20260505201457 | 15 | 293 | 3.2 | 9.7 | 0.00 | 0.00 | 0.00 | 75 | 1014.9 |
| 20260505200956 | 15 | 261 | 4.8 | 12.9 | 0.00 | 0.00 | 0.00 | 76 | 1015.0 |
| 20260505200456 | 15 | 304 | 4.8 | 12.9 | 0.00 | 0.00 | 0.00 | 76 | 1015.1 |
| 20260505195957 | 15 | 312 | 4.8 | 12.9 | 0.00 | 0.00 | 0.00 | 76 | 1015.1 |
| 20260505195459 | 15 | 292 | 4.8 | 9.7 | 0.00 | 0.00 | 0.00 | 75 | 1015.1 |
| 20260505195453 | 15 | 303 | 4.8 | 9.7 | 0.00 | 0.00 | 0.00 | 76 | 1015.1 |
| 20260505194458 | 15 | 327 | 4.8 | 11.3 | 0.00 | 0.00 | 0.00 | 74 | 1015.2 |
| 20260505194452 | 15 | 298 | 4.8 | 11.3 | 0.00 | 0.00 | 0.00 | 75 | 1015.1 |
| 20260505193453 | 15 | 355 | 4.8 | 11.3 | 0.00 | 0.00 | 0.00 | 74 | 1015.2 |
| 20260505192952 | 15 | 316 | 4.8 | 11.3 | 0.00 | 0.00 | 0.00 | 75 | 1015.2 |
| 20260505192449 | 15 | 304 | 3.2 | 11.3 | 0.00 | 0.00 | 0.00 | 74 | 1015.2 |
| 20260505191946 | 15 | 283 | 3.2 | 8.0 | 0.00 | 0.00 | 0.00 | 75 | 1015.1 |
| 20260505191447 | 15 | 5 | 4.8 | 12.9 | 0.00 | 0.00 | 0.00 | 76 | 1015.1 |
| 20260505190947 | 15 | 9 | 4.8 | 12.9 | 0.00 | 0.00 | 0.00 | 75 | 1015.2 |
| 20260505190445 | 15 | 320 | 4.8 | 11.3 | 0.00 | 0.00 | 0.00 | 75 | 1015.1 |
| 20260505185946 | 15 | 314 | 3.2 | 9.7 | 0.00 | 0.00 | 0.00 | 75 | 1015.1 |
| 20260505185447 | 15 | 296 | 4.8 | 9.7 | 0.00 | 0.00 | 0.00 | 76 | 1015.1 |
| 20260505184949 | 15 | 346 | 3.2 | 9.7 | 0.00 | 0.00 | 0.00 | 76 | 1015.1 |
| 20260505184944 | 14 | 278 | 4.8 | 9.7 | 0.00 | 0.00 | 0.00 | 77 | 1015.1 |
| 20260505183945 | 14 | 229 | 1.6 | 6.4 | 0.00 | 0.00 | 0.00 | 76 | 1015.1 |
| 20260505183445 | 14 | 267 | 1.6 | 4.8 | 0.00 | 0.00 | 0.00 | 76 | 1015.2 |
| 20260505182944 | 14 | 267 | 3.2 | 6.4 | 0.00 | 0.00 | 0.00 | 76 | 1015.1 |
| 20260505182444 | 14 | 267 | 3.2 | 6.4 | 0.00 | 0.00 | 0.00 | 76 | 1015.2 |
| 20260505181944 | 14 | 355 | 1.6 | 6.4 | 0.00 | 0.00 | 0.00 | 78 | 1015.2 |
| 20260505181443 | 13 | 344 | 1.6 | 6.4 | 0.00 | 0.00 | 0.00 | 77 | 1015.2 |
| 20260505180945 | 13 | 344 | 3.2 | 6.4 | 0.00 | 0.00 | 0.00 | 76 | 1015.2 |
| 20260505180441 | 13 | 344 | 3.2 | 8.0 | 0.00 | 0.00 | 0.00 | 76 | 1015.1 |
| 20260505175939 | 13 | 344 | 4.8 | 8.0 | 0.00 | 0.00 | 0.00 | 76 | 1015.0 |
| 20260505175441 | 13 | 355 | 3.2 | 11.3 | 0.00 | 0.00 | 0.00 | 76 | 1015.0 |
| 20260505174940 | 13 | 351 | 3.2 | 11.3 | 0.00 | 0.00 | 0.00 | 76 | 1015.0 |
| 20260505174440 | 13 | 309 | 3.2 | 9.7 | 0.00 | 0.00 | 0.00 | 76 | 1015.0 |
| 20260505173940 | 14 | 292 | 1.6 | 6.4 | 0.00 | 0.00 | 0.00 | 77 | 1014.9 |
| 20260505173441 | 14 | 292 | 3.2 | 8.0 | 0.00 | 0.00 | 0.00 | 77 | 1014.8 |
| 20260505172946 | 14 | 285 | 1.6 | 4.8 | 0.00 | 0.00 | 0.00 | 75 | 1014.7 |
| 20260505172942 | 14 | 292 | 3.2 | 8.0 | 0.00 | 0.00 | 0.00 | 76 | 1014.8 |
| 20260505171941 | 13 | 315 | 1.6 | 6.4 | 0.00 | 0.00 | 0.00 | 76 | 1014.6 |
| 20260505171446 | 13 | 315 | 1.6 | 6.4 | 0.00 | 0.00 | 0.00 | 73 | 1014.6 |
| 20260505171441 | 13 | 315 | 1.6 | 6.4 | 0.00 | 0.00 | 0.00 | 75 | 1014.6 |
| 20260505170445 | 13 | 311 | 3.2 | 6.4 | 0.00 | 0.00 | 0.00 | 74 | 1014.5 |
| 20260505170441 | 13 | 315 | 1.6 | 4.8 | 0.00 | 0.00 | 0.00 | 73 | 1014.5 |
| 20260505165441 | 13 | 322 | 1.6 | 6.4 | 0.00 | 0.00 | 0.00 | 73 | 1014.5 |
| 20260505164940 | 13 | 241 | 1.6 | 4.8 | 0.00 | 0.00 | 0.00 | 74 | 1014.5 |
| 20260505164448 | 13 | 241 | 1.6 | 6.4 | 0.00 | 0.00 | 0.00 | 75 | 1014.5 |
| 20260505164440 | 13 | 241 | 1.6 | 4.8 | 0.00 | 0.00 | 0.00 | 75 | 1014.5 |
| 20260505163942 | 13 | 241 | 1.6 | 4.8 | 0.00 | 0.00 | 0.00 | 74 | 1014.5 |
| 20260505162940 | 13 | 171 | 1.6 | 6.4 | 0.00 | 0.00 | 0.00 | 76 | 1014.5 |
| 20260505162439 | 13 | 171 | 1.6 | 6.4 | 0.00 | 0.00 | 0.00 | 75 | 1014.4 |
| 20260505161940 | 13 | 171 | 1.6 | 3.2 | 0.00 | 0.00 | 0.00 | 76 | 1014.5 |
| 20260505161439 | 13 | 171 | 1.6 | 3.2 | 0.00 | 0.00 | 0.00 | 75 | 1014.5 |
| 20260505160940 | 13 | 171 | 1.6 | 3.2 | 0.00 | 0.00 | 0.00 | 76 | 1014.4 |
| 20260505160439 | 13 | 171 | 1.6 | 6.4 | 0.00 | 0.00 | 0.00 | 76 | 1014.4 |
| 20260505152931 | 12 | 149 | 3.2 | 8.0 | 0.00 | 0.00 | 0.00 | 79 | 1014.2 |
| 20260505152433 | 12 | 155 | 3.2 | 9.7 | 0.00 | 0.00 | 0.00 | 79 | 1014.3 |
| 20260505151932 | 12 | 155 | 4.8 | 9.7 | 0.00 | 0.00 | 0.00 | 79 | 1014.2 |
| 20260505151434 | 12 | 148 | 4.8 | 9.7 | 0.00 | 0.00 | 0.00 | 79 | 1014.1 |
| 20260505151430 | 12 | 157 | 4.8 | 9.7 | 0.00 | 0.00 | 0.00 | 79 | 1014.1 |
| 20260505150428 | 12 | 165 | 4.8 | 8.0 | 0.00 | 0.00 | 0.00 | 80 | 1014.1 |
| 20260505140542 | 11 | 210 | 3.2 | 4.8 | 0.00 | 0.00 | 0.00 | 83 | 1013.6 |
| 20260505140423 | 11 | 210 | 0.0 | 3.2 | 0.00 | 0.00 | 0.00 | 82 | 1013.8 |
| 20260505124917 | 11 | 226 | 1.6 | 3.2 | 0.00 | 0.00 | 0.00 | 84 | 1013.4 |
| 20260505124415 | 11 | 226 | 1.6 | 3.2 | 0.00 | 0.00 | 0.00 | 85 | 1013.4 |
| 20260505123916 | 11 | 226 | 1.6 | 4.8 | 0.00 | 0.00 | 0.00 | 85 | 1013.6 |
| 20260505123415 | 11 | 226 | 0.0 | 4.8 | 0.00 | 0.00 | 0.00 | 85 | 1013.7 |
| 20260505122916 | 11 | 226 | 0.0 | 3.2 | 0.00 | 0.00 | 0.00 | 86 | 1013.6 |
| 20260505122417 | 11 | 229 | 0.0 | 0.0 | 0.00 | 0.00 | 0.00 | 86 | 1013.7 |
| 20260505121915 | 11 | 232 | 0.0 | 0.0 | 0.00 | 0.00 | 0.00 | 85 | 1013.7 |
| 20260505121415 | 11 | 232 | 0.0 | 0.0 | 0.00 | 0.00 | 0.00 | 85 | 1013.7 |
| 20260505120916 | 11 | 232 | 0.0 | 0.0 | 0.00 | 0.00 | 0.00 | 85 | 1013.6 |
| 20260505120417 | 11 | 283 | 0.0 | 0.0 | 0.00 | 0.00 | 0.00 | 85 | 1013.6 |
| 20260505115915 | 11 | 283 | 0.0 | 0.0 | 0.00 | 0.00 | 0.00 | 85 | 1013.6 |
| 20260505115413 | 11 | 283 | 0.0 | 0.0 | 0.00 | 0.00 | 0.00 | 85 | 1013.6 |
| 20260505114914 | 11 | 283 | 0.0 | 0.0 | 0.00 | 0.00 | 0.00 | 86 | 1013.7 |
| 20260505114413 | 11 | 283 | 0.0 | 0.0 | 0.00 | 0.00 | 0.00 | 85 | 1013.7 |
| 20260505113919 | 11 | 283 | 0.0 | 1.6 | 0.00 | 0.00 | 0.00 | 85 | 1013.8 |
| 20260505113913 | 11 | 283 | 0.0 | 0.0 | 0.00 | 0.00 | 0.00 | 85 | 1013.8 |
| 20260505113530 | 11 | 283 | 0.0 | 1.6 | 0.00 | 0.00 | 0.00 | 85 | 1013.7 |
| 20260505112413 | 11 | 283 | 0.0 | 0.0 | 0.00 | 0.00 | 0.00 | 84 | 1013.7 |
| 20260505111914 | 11 | 283 | 0.0 | 3.2 | 0.00 | 0.00 | 0.00 | 83 | 1013.7 |
| 20260505111413 | 11 | 283 | 1.6 | 4.8 | 0.00 | 0.00 | 0.00 | 82 | 1013.8 |
| 20260505110915 | 11 | 283 | 1.6 | 4.8 | 0.00 | 0.00 | 0.00 | 83 | 1013.7 |
| 20260505110413 | 11 | 283 | 0.0 | 4.8 | 0.00 | 0.00 | 0.00 | 83 | 1013.7 |
| 20260505101911 | 11 | 279 | 4.8 | 8.0 | 0.00 | 0.00 | 0.00 | 80 | 1013.6 |
| 20260505101409 | 11 | 300 | 3.2 | 8.0 | 0.00 | 0.00 | 0.00 | 80 | 1013.6 |
| 20260505100909 | 11 | 274 | 1.6 | 6.4 | 0.00 | 0.00 | 0.00 | 80 | 1013.8 |
| 20260505100409 | 11 | 273 | 0.0 | 0.0 | 0.00 | 0.00 | 0.00 | 80 | 1013.8 |
| 20260505095914 | 11 | 273 | 0.0 | 0.0 | 0.00 | 0.00 | 0.00 | 80 | 1013.9 |
| 20260505095909 | 11 | 273 | 0.0 | 0.0 | 0.00 | 0.00 | 0.00 | 80 | 1013.8 |
| 20260505094911 | 11 | 273 | 0.0 | 0.0 | 0.00 | 0.00 | 0.00 | 80 | 1013.8 |
| 20260505094410 | 11 | 272 | 0.0 | 0.0 | 0.00 | 0.00 | 0.00 | 79 | 1013.9 |
| 20260505093912 | 11 | 272 | 0.0 | 1.6 | 0.00 | 0.00 | 0.00 | 78 | 1014.0 |
| 20260505093908 | 11 | 272 | 0.0 | 0.0 | 0.00 | 0.00 | 0.00 | 78 | 1013.8 |
| 20260505092912 | 12 | 272 | 3.2 | 6.4 | 0.00 | 0.00 | 0.00 | 76 | 1013.9 |
| 20260505092907 | 11 | 272 | 1.6 | 4.8 | 0.00 | 0.00 | 0.00 | 76 | 1014.0 |
| 20260505091907 | 12 | 272 | 4.8 | 12.9 | 0.00 | 0.00 | 0.00 | 75 | 1013.9 |
| 20260505091407 | 12 | 297 | 6.4 | 12.9 | 0.00 | 0.00 | 0.00 | 75 | 1013.9 |
| 20260505090912 | 12 | 271 | 4.8 | 12.9 | 0.00 | 0.00 | 0.00 | 74 | 1014.1 |
| 20260505090908 | 12 | 295 | 4.8 | 12.9 | 0.00 | 0.00 | 0.00 | 75 | 1014.0 |
| 20260505085907 | 12 | 284 | 6.4 | 12.9 | 0.00 | 0.00 | 0.00 | 74 | 1014.1 |
| 20260505085404 | 12 | 298 | 8.0 | 16.1 | 0.00 | 0.00 | 0.00 | 73 | 1014.2 |
| 20260505084906 | 12 | 292 | 8.0 | 16.1 | 0.00 | 0.00 | 0.00 | 73 | 1014.2 |
| 20260505084406 | 12 | 304 | 8.0 | 16.1 | 0.00 | 0.00 | 0.00 | 73 | 1014.3 |
| 20260505083905 | 12 | 295 | 6.4 | 16.1 | 0.00 | 0.00 | 0.00 | 73 | 1014.3 |
| 20260505083412 | 12 | 313 | 6.4 | 16.1 | 0.00 | 0.00 | 0.00 | 72 | 1014.5 |
| 20260505083406 | 12 | 306 | 6.4 | 12.9 | 0.00 | 0.00 | 0.00 | 73 | 1014.4 |
| 20260505082906 | 12 | 286 | 8.0 | 16.1 | 0.00 | 0.00 | 0.00 | 72 | 1014.4 |
| 20260505081904 | 12 | 319 | 6.4 | 12.9 | 0.00 | 0.00 | 0.00 | 72 | 1014.5 |
| 20260505081405 | 12 | 315 | 8.0 | 17.7 | 0.00 | 0.00 | 0.00 | 72 | 1014.4 |
| 20260505080905 | 12 | 276 | 9.7 | 17.7 | 0.00 | 0.00 | 0.00 | 72 | 1014.4 |
| 20260505080406 | 12 | 285 | 8.0 | 17.7 | 0.00 | 0.00 | 0.00 | 73 | 1014.4 |
| 20260505075905 | 12 | 302 | 8.0 | 17.7 | 0.00 | 0.00 | 0.00 | 73 | 1014.5 |
| 20260505075406 | 12 | 269 | 9.7 | 24.1 | 0.00 | 0.00 | 0.00 | 74 | 1014.6 |
| 20260505074906 | 12 | 306 | 11.3 | 24.1 | 0.00 | 0.00 | 0.00 | 75 | 1014.5 |
| 20260505074405 | 12 | 304 | 8.0 | 20.9 | 0.00 | 0.00 | 0.00 | 76 | 1014.5 |
| 20260505073905 | 12 | 292 | 6.4 | 14.5 | 0.00 | 0.00 | 0.00 | 77 | 1014.5 |
| 20260505073406 | 12 | 295 | 6.4 | 14.5 | 0.00 | 0.00 | 0.00 | 78 | 1014.5 |
| 20260505072906 | 12 | 294 | 4.8 | 14.5 | 0.00 | 0.00 | 0.00 | 77 | 1014.5 |
| 20260505072406 | 12 | 300 | 4.8 | 12.9 | 0.00 | 0.00 | 0.00 | 78 | 1014.4 |
| 20260505071904 | 12 | 334 | 4.8 | 11.3 | 0.00 | 0.00 | 0.00 | 78 | 1014.4 |
| 20260505071406 | 12 | 287 | 6.4 | 11.3 | 0.00 | 0.00 | 0.00 | 78 | 1014.3 |
| 20260505070910 | 12 | 319 | 4.8 | 11.3 | 0.00 | 0.00 | 0.00 | 79 | 1014.2 |
| 20260505070906 | 12 | 294 | 4.8 | 11.3 | 0.00 | 0.00 | 0.00 | 79 | 1014.3 |
| 20260505065906 | 12 | 311 | 6.4 | 12.9 | 0.00 | 0.00 | 0.00 | 79 | 1014.2 |
| 20260505065409 | 12 | 302 | 3.2 | 12.9 | 0.00 | 0.00 | 0.00 | 80 | 1014.1 |
| 20260505065405 | 12 | 308 | 4.8 | 12.9 | 0.00 | 0.00 | 0.00 | 79 | 1014.1 |
| 20260505064408 | 12 | 290 | 4.8 | 9.7 | 0.00 | 0.00 | 0.00 | 81 | 1014.1 |
| 20260505064403 | 12 | 302 | 4.8 | 9.7 | 0.00 | 0.00 | 0.00 | 80 | 1014.1 |
| 20260505063402 | 12 | 319 | 3.2 | 8.0 | 0.00 | 0.00 | 0.00 | 81 | 1014.2 |
| 20260505062902 | 12 | 336 | 3.2 | 6.4 | 0.00 | 0.00 | 0.00 | 81 | 1014.1 |
| 20260505062400 | 12 | 267 | 3.2 | 9.7 | 0.00 | 0.00 | 0.00 | 81 | 1014.0 |
| 20260505061902 | 12 | 277 | 3.2 | 9.7 | 0.00 | 0.00 | 0.00 | 81 | 1013.9 |
| 20260505061856 | 12 | 267 | 3.2 | 9.7 | 0.00 | 0.00 | 0.00 | 81 | 1014.0 |
| 20260505060859 | 12 | 271 | 4.8 | 9.7 | 0.00 | 0.00 | 0.00 | 81 | 1013.9 |
| 20260505060357 | 12 | 275 | 6.4 | 14.5 | 0.00 | 0.00 | 0.00 | 81 | 1013.8 |
| 20260505055856 | 12 | 302 | 6.4 | 14.5 | 0.00 | 0.00 | 0.00 | 81 | 1013.9 |
| 20260505055356 | 13 | 309 | 4.8 | 11.3 | 0.00 | 0.00 | 0.00 | 80 | 1014.0 |
| 20260505054855 | 13 | 303 | 3.2 | 6.4 | 0.00 | 0.00 | 0.00 | 80 | 1014.1 |
| 20260505054355 | 13 | 288 | 4.8 | 9.7 | 0.00 | 0.00 | 0.00 | 79 | 1014.0 |
| 20260505053856 | 13 | 333 | 6.4 | 14.5 | 0.00 | 0.00 | 0.00 | 79 | 1014.1 |
| 20260505053353 | 13 | 294 | 6.4 | 14.5 | 0.00 | 0.00 | 0.00 | 79 | 1014.1 |
| 20260505052855 | 13 | 280 | 4.8 | 11.3 | 0.00 | 0.00 | 0.00 | 79 | 1014.2 |
| 20260505052400 | 13 | 306 | 6.4 | 11.3 | 0.00 | 0.00 | 0.00 | 78 | 1014.4 |
| 20260505052355 | 13 | 323 | 4.8 | 11.3 | 0.00 | 0.00 | 0.00 | 79 | 1014.4 |
| 20260505051354 | 13 | 288 | 4.8 | 11.3 | 0.00 | 0.00 | 0.00 | 78 | 1014.4 |
| 20260505050859 | 13 | 296 | 8.0 | 17.7 | 0.00 | 0.00 | 0.00 | 77 | 1014.5 |
| 20260505050853 | 13 | 304 | 4.8 | 14.5 | 0.00 | 0.00 | 0.00 | 77 | 1014.4 |
| 20260505041356 | 13 | 342 | 8.0 | 16.1 | 0.00 | 0.00 | 0.00 | 76 | 1014.0 |
| 20260505041351 | 13 | 332 | 6.4 | 16.1 | 0.00 | 0.00 | 0.00 | 77 | 1014.0 |
| 20260505041020 | 13 | 312 | 8.0 | 17.7 | 0.00 | 0.00 | 0.00 | 76 | 1013.9 |
| 20260505040508 | 13 | 292 | 6.4 | 17.7 | 0.00 | 0.00 | 0.00 | 75 | 1013.8 |
| 20260505035349 | 13 | 331 | 6.4 | 17.7 | 0.00 | 0.00 | 0.00 | 74 | 1013.7 |
| 20260505034850 | 13 | 344 | 8.0 | 19.3 | 0.00 | 0.00 | 0.00 | 74 | 1013.7 |
| 20260505034349 | 13 | 300 | 8.0 | 19.3 | 0.00 | 0.00 | 0.00 | 73 | 1013.7 |
| 20260505033849 | 14 | 311 | 6.4 | 16.1 | 0.00 | 0.00 | 0.00 | 72 | 1013.6 |
| 20260505033355 | 14 | 334 | 6.4 | 12.9 | 0.00 | 0.00 | 0.00 | 72 | 1013.2 |
| 20260505033350 | 14 | 321 | 6.4 | 16.1 | 0.00 | 0.00 | 0.00 | 71 | 1013.4 |
| 20260505032349 | 14 | 309 | 6.4 | 14.5 | 0.00 | 0.00 | 0.00 | 70 | 1013.1 |
| 20260505031848 | 15 | 318 | 6.4 | 14.5 | 0.00 | 0.00 | 0.00 | 70 | 1013.0 |
| 20260505031349 | 15 | 329 | 6.4 | 14.5 | 0.00 | 0.00 | 0.00 | 69 | 1013.1 |
| 20260505030854 | 15 | 341 | 6.4 | 16.1 | 0.00 | 0.00 | 0.00 | 68 | 1013.1 |
| 20260505030849 | 15 | 341 | 6.4 | 14.5 | 0.00 | 0.00 | 0.00 | 68 | 1013.1 |
| 20260505025852 | 15 | 355 | 6.4 | 12.9 | 0.00 | 0.00 | 0.00 | 66 | 1013.1 |
| 20260505025848 | 15 | 306 | 6.4 | 16.1 | 0.00 | 0.00 | 0.00 | 67 | 1013.1 |
| 20260505024848 | 15 | 312 | 6.4 | 16.1 | 0.00 | 0.00 | 0.00 | 66 | 1013.1 |
| 20260505024353 | 15 | 337 | 6.4 | 14.5 | 0.00 | 0.00 | 0.00 | 66 | 1013.0 |
| 20260505024349 | 15 | 309 | 6.4 | 16.1 | 0.00 | 0.00 | 0.00 | 66 | 1013.1 |
| 20260505023347 | 15 | 315 | 6.4 | 16.1 | 0.00 | 0.00 | 0.00 | 66 | 1013.0 |
| 20260505022848 | 15 | 295 | 8.0 | 19.3 | 0.00 | 0.00 | 0.00 | 65 | 1013.2 |
| 20260505022348 | 15 | 303 | 8.0 | 19.3 | 0.00 | 0.00 | 0.00 | 64 | 1013.1 |
| 20260505021845 | 15 | 327 | 6.4 | 17.7 | 0.00 | 0.00 | 0.00 | 64 | 1012.9 |
| 20260505021343 | 15 | 318 | 8.0 | 16.1 | 0.00 | 0.00 | 0.00 | 64 | 1013.1 |
| 20260505020843 | 15 | 346 | 9.7 | 17.7 | 0.00 | 0.00 | 0.00 | 63 | 1013.1 |
| 20260505020344 | 15 | 313 | 9.7 | 17.7 | 0.00 | 0.00 | 0.00 | 63 | 1012.9 |
| 20260505015843 | 15 | 9 | 9.7 | 19.3 | 0.00 | 0.00 | 0.00 | 63 | 1013.0 |
| 20260505015348 | 15 | 329 | 11.3 | 20.9 | 0.00 | 0.00 | 0.00 | 64 | 1013.0 |
| 20260505015343 | 15 | 329 | 11.3 | 20.9 | 0.00 | 0.00 | 0.00 | 64 | 1012.9 |
| 20260505014344 | 16 | 306 | 9.7 | 19.3 | 0.00 | 0.00 | 0.00 | 64 | 1013.0 |
| 20260505013844 | 16 | 325 | 9.7 | 19.3 | 0.00 | 0.00 | 0.00 | 65 | 1013.0 |
| 20260505013345 | 16 | 348 | 6.4 | 19.3 | 0.00 | 0.00 | 0.00 | 65 | 1013.0 |
| 20260505013001 | 16 | 48 | 8.0 | 17.7 | 0.00 | 0.00 | 0.00 | 64 | 1013.0 |
| 20260505012848 | 16 | 19 | 6.4 | 17.7 | 0.00 | 0.00 | 0.00 | 64 | 1013.0 |
| 20260505012842 | 16 | 329 | 4.8 | 12.9 | 0.00 | 0.00 | 0.00 | 64 | 1013.0 |
| 20260505011343 | 16 | 310 | 6.4 | 16.1 | 0.00 | 0.00 | 0.00 | 63 | 1013.1 |
| 20260505010844 | 16 | 309 | 6.4 | 16.1 | 0.00 | 0.00 | 0.00 | 64 | 1013.0 |
| 20260505010343 | 16 | 345 | 8.0 | 17.7 | 0.00 | 0.00 | 0.00 | 64 | 1013.1 |
| 20260505005844 | 16 | 318 | 8.0 | 17.7 | 0.00 | 0.00 | 0.00 | 64 | 1013.2 |
| 20260505005344 | 16 | 326 | 4.8 | 17.7 | 0.00 | 0.00 | 0.00 | 64 | 1013.2 |
| 20260505004844 | 16 | 327 | 6.4 | 12.9 | 0.00 | 0.00 | 0.00 | 64 | 1013.3 |
| 20260505004344 | 17 | 348 | 6.4 | 12.9 | 0.00 | 0.00 | 0.00 | 65 | 1013.3 |
| 20260505003840 | 17 | 325 | 6.4 | 16.1 | 0.00 | 0.00 | 0.00 | 66 | 1013.3 |
| 20260505003342 | 16 | 338 | 8.0 | 16.1 | 0.00 | 0.00 | 0.00 | 66 | 1013.3 |
| 20260505002841 | 17 | 319 | 9.7 | 16.1 | 0.00 | 0.00 | 0.00 | 66 | 1013.3 |
| 20260505002342 | 17 | 320 | 8.0 | 17.7 | 0.00 | 0.00 | 0.00 | 66 | 1013.4 |
| 20260505001842 | 16 | 309 | 6.4 | 17.7 | 0.00 | 0.00 | 0.00 | 66 | 1013.4 |
| 20260505001345 | 16 | 314 | 6.4 | 14.5 | 0.00 | 0.00 | 0.00 | 68 | 1013.3 |
| 20260505001339 | 16 | 317 | 6.4 | 14.5 | 0.00 | 0.00 | 0.00 | 68 | 1013.3 |
| 20260505000345 | 16 | 242 | 6.4 | 14.5 | 0.00 | 0.00 | 0.00 | 67 | 1013.3 |
| 20260505000339 | 16 | 323 | 6.4 | 12.9 | 0.00 | 0.00 | 0.00 | 67 | 1013.3 |
| 20260504235839 | 16 | 231 | 6.4 | 14.5 | 0.00 | 0.00 | 0.00 | 67 | 1013.3 |
| 20260504234841 | 16 | 244 | 4.8 | 14.5 | 0.00 | 0.00 | 0.00 | 67 | 1013.2 |
| 20260504234837 | 16 | 204 | 6.4 | 14.5 | 0.00 | 0.00 | 0.00 | 66 | 1013.3 |